C/2019 K4 ( Ye )

Japanese version
Home page
Updated on December 9, 2019

---------------------------------------------------------------------

* Profile

Discovery Date May 30, 2019
Magnitude 17.1 mag
Discoverer Quan-zhi Ye (Palomar)

* Pictures

* Orbital Elements

Epoch 2019 June 6.0 TT = JDT 2458640.5
T 2019 June 16.41306 TT                                 Williams
q   2.2593841            (2000.0)            P               Q
z  +0.0004274      Peri.  139.76942     +0.76295825     +0.64644182
 +/-0.0000041      Node   180.16467     -0.08936538     +0.10971798
e   0.9990342      Incl.  105.30572     +0.64024100     -0.75503307
From 381 observations 2019 Apr. 24-Nov. 2, mean residual 0".5.

* Finding Charts

* Magnitudes Graph

        m1 = 11.7 + 5 log d + 10.0 log r

---------------------------------------------------------------------

The orbital elements are published on M.P.E.C. 2019-V116.
The charts are made with StellaNavigator Ver.10 (AstroArts).
The magnitudes graphs are made with Comet for Windows.

---------------------------------------------------------------------

Copyright(C) Seiichi Yoshida (comet@aerith.net). All rights reserved.